FIN7AJ BIKF-EFHK

Flight info

Callsign FIN7AJ
Flight time N/A
Altitude 37000
Route LUTER3C LUTER DCT 64N010W 6330N00000E/N0453F390 DCT MORIG DCT TIGBA DCT UXADA Y349 AMROT Y362 LAKUT
Aircraft B738/M-SDE2E3FGHIRWXY/LB1

Departure

Time 2026-04-27 15:14
Airport Keflavik International Airport (BIKF)

Arrival

Time N/A
Airport Helsinki Vantaa Airport (EFHK)
Time Latitude Longitude Altitude Speed Heading
2026-04-27 14:56 63.99290 -22.61821 140 ft 0 kts 90°
2026-04-27 14:57 63.99290 -22.61822 140 ft 0 kts 90°
2026-04-27 15:01 63.99290 -22.61823 137 ft 0 kts 90°
2026-04-27 15:06 63.99290 -22.61835 140 ft 4 kts 90°
2026-04-27 15:06 63.99290 -22.61896 139 ft 4 kts 90°
2026-04-27 15:06 63.99291 -22.61950 140 ft 4 kts 112°
2026-04-27 15:07 63.99307 -22.61984 140 ft 4 kts 173°
2026-04-27 15:07 63.99324 -22.61986 140 ft 1 kts 180°
2026-04-27 15:07 63.99327 -22.61986 140 ft 2 kts 180°
2026-04-27 15:10 63.99313 -22.61986 137 ft 3 kts 179°
2026-04-27 15:10 63.99290 -22.61985 140 ft 4 kts 178°
2026-04-27 15:10 63.99261 -22.61984 140 ft 5 kts 184°
2026-04-27 15:11 63.99205 -22.61985 140 ft 10 kts 179°
2026-04-27 15:11 63.99172 -22.61858 141 ft 11 kts 91°
2026-04-27 15:11 63.99168 -22.61687 145 ft 11 kts 93°
2026-04-27 15:11 63.99167 -22.61521 148 ft 10 kts 90°
2026-04-27 15:12 63.99168 -22.61362 153 ft 10 kts 89°
2026-04-27 15:12 63.99167 -22.61206 155 ft 10 kts 89°
2026-04-27 15:12 63.99167 -22.61053 158 ft 10 kts 90°
2026-04-27 15:12 63.99170 -22.60903 161 ft 10 kts 87°
2026-04-27 15:13 63.99173 -22.60751 165 ft 10 kts 89°
2026-04-27 15:13 63.99164 -22.60591 172 ft 11 kts 126°
2026-04-27 15:13 63.99083 -22.60540 173 ft 20 kts 178°
2026-04-27 15:13 63.98723 -22.60554 171 ft 83 kts 185°
2026-04-27 15:14 63.97961 -22.60553 217 ft 130 kts 178°
2026-04-27 15:14 63.97037 -22.60608 793 ft 135 kts 179°
2026-04-27 15:14 63.96171 -22.60505 1784 ft 121 kts 166°
2026-04-27 15:14 63.95406 -22.59426 2482 ft 149 kts 144°
2026-04-27 15:15 63.94787 -22.57074 2809 ft 193 kts 128°
2026-04-27 15:15 63.94188 -22.54094 3116 ft 218 kts 124°
2026-04-27 15:15 63.93552 -22.50794 3478 ft 239 kts 123°
2026-04-27 15:15 63.92878 -22.47260 4268 ft 248 kts 123°
2026-04-27 15:16 63.92192 -22.43656 5257 ft 249 kts 123°
2026-04-27 15:16 63.91488 -22.40001 5718 ft 254 kts 123°
2026-04-27 15:16 63.90783 -22.36356 6269 ft 257 kts 124°
2026-04-27 15:16 63.90060 -22.32637 6995 ft 259 kts 124°
2026-04-27 15:17 63.89315 -22.28843 7775 ft 266 kts 124°
2026-04-27 15:17 63.88550 -22.24961 8590 ft 272 kts 124°
2026-04-27 15:17 63.87770 -22.21017 9465 ft 276 kts 124°
2026-04-27 15:17 63.86980 -22.17003 10238 ft 284 kts 124°
2026-04-27 15:18 63.86127 -22.12738 10462 ft 310 kts 124°
2026-04-27 15:18 63.85196 -22.08106 10760 ft 332 kts 123°
2026-04-27 15:18 63.84259 -22.03220 11390 ft 346 kts 117°
2026-04-27 15:18 63.83919 -21.97716 12161 ft 372 kts 94°
2026-04-27 15:19 63.84293 -21.91815 12999 ft 382 kts 87°
2026-04-27 15:19 63.84793 -21.85839 13733 ft 390 kts 86°
2026-04-27 15:19 63.85306 -21.79761 14358 ft 395 kts 86°
2026-04-27 15:19 63.85801 -21.73587 15020 ft 400 kts 87°
2026-04-27 15:20 63.86280 -21.67331 15705 ft 405 kts 88°
2026-04-27 15:20 63.86755 -21.60994 16363 ft 410 kts 88°
2026-04-27 15:20 63.87233 -21.54566 17016 ft 416 kts 88°
2026-04-27 15:20 63.87707 -21.48139 17598 ft 422 kts 87°
2026-04-27 15:21 63.88232 -21.41534 18187 ft 432 kts 82°
2026-04-27 15:21 63.89384 -21.35109 18735 ft 447 kts 66°
2026-04-27 15:21 63.90869 -21.28871 19316 ft 451 kts 65°
2026-04-27 15:21 63.92379 -21.22574 19851 ft 456 kts 65°
2026-04-27 15:22 63.93884 -21.16190 20369 ft 461 kts 66°
2026-04-27 15:22 63.95383 -21.09700 20904 ft 466 kts 66°
2026-04-27 15:22 63.96877 -21.03125 21455 ft 470 kts 66°
2026-04-27 15:22 63.98359 -20.96560 21944 ft 475 kts 67°
2026-04-27 15:23 63.99873 -20.89827 22437 ft 480 kts 67°
2026-04-27 15:23 64.01397 -20.83032 22950 ft 484 kts 67°
2026-04-27 15:23 64.02932 -20.76163 23456 ft 488 kts 66°
2026-04-27 15:23 64.04477 -20.69240 23895 ft 491 kts 66°
2026-04-27 15:24 64.06027 -20.62276 24372 ft 493 kts 66°
2026-04-27 15:24 64.07578 -20.55280 24872 ft 494 kts 66°
2026-04-27 15:24 64.09131 -20.48250 25321 ft 497 kts 66°
2026-04-27 15:24 64.10686 -20.41179 25758 ft 499 kts 67°
2026-04-27 15:25 64.11891 -20.33790 26136 ft 493 kts 84°
2026-04-27 15:25 64.12200 -20.26184 26588 ft 485 kts 94°
2026-04-27 15:25 64.12321 -20.18455 27021 ft 487 kts 94°
2026-04-27 15:25 64.12445 -20.10685 27401 ft 490 kts 94°
2026-04-27 15:26 64.12580 -20.02868 27766 ft 492 kts 93°
2026-04-27 15:26 64.12727 -19.95051 28209 ft 493 kts 92°
2026-04-27 15:26 64.12884 -19.87203 28609 ft 495 kts 92°
2026-04-27 15:26 64.13044 -19.79308 28965 ft 497 kts 92°
2026-04-27 15:27 64.13204 -19.71382 29305 ft 500 kts 92°
2026-04-27 15:27 64.13359 -19.63520 29654 ft 502 kts 92°
2026-04-27 15:27 64.13513 -19.55519 30018 ft 503 kts 92°
2026-04-27 15:27 64.13663 -19.47502 30301 ft 505 kts 92°
2026-04-27 15:28 64.13807 -19.39444 30556 ft 508 kts 92°
2026-04-27 15:28 64.13948 -19.31354 30867 ft 508 kts 92°
2026-04-27 15:28 64.14084 -19.23275 31241 ft 508 kts 92°
2026-04-27 15:28 64.14215 -19.15181 31513 ft 509 kts 92°
2026-04-27 15:29 64.14342 -19.07071 31797 ft 510 kts 92°
2026-04-27 15:29 64.14464 -18.98953 32157 ft 510 kts 92°
2026-04-27 15:29 64.14581 -18.90957 32541 ft 509 kts 92°
2026-04-27 15:29 64.14694 -18.82857 32883 ft 508 kts 92°
2026-04-27 15:30 64.14803 -18.74763 33213 ft 509 kts 92°
2026-04-27 15:30 64.14906 -18.66658 33520 ft 509 kts 93°
2026-04-27 15:30 64.15006 -18.58548 33851 ft 509 kts 93°
2026-04-27 15:30 64.15101 -18.50443 34164 ft 509 kts 93°
2026-04-27 15:31 64.15191 -18.42346 34443 ft 507 kts 92°
2026-04-27 15:31 64.15277 -18.34299 34848 ft 503 kts 92°
2026-04-27 15:31 64.15358 -18.26313 35248 ft 500 kts 92°
2026-04-27 15:31 64.15434 -18.18484 35613 ft 497 kts 92°
2026-04-27 15:32 64.15505 -18.10573 35910 ft 496 kts 92°
2026-04-27 15:32 64.15572 -18.02685 36172 ft 495 kts 92°
2026-04-27 15:32 64.15633 -17.94792 36472 ft 494 kts 92°
2026-04-27 15:32 64.15691 -17.86932 36795 ft 493 kts 92°
2026-04-27 15:33 64.15744 -17.79100 37124 ft 491 kts 92°
2026-04-27 15:33 64.15793 -17.71291 37431 ft 489 kts 93°
2026-04-27 15:33 64.15838 -17.63512 37694 ft 488 kts 93°
2026-04-27 15:33 64.15878 -17.55762 38071 ft 483 kts 91°
2026-04-27 15:34 64.15914 -17.48202 38459 ft 480 kts 92°
2026-04-27 15:34 64.15946 -17.40573 38680 ft 479 kts 92°
2026-04-27 15:34 64.15973 -17.32928 38822 ft 480 kts 92°
2026-04-27 15:34 64.15996 -17.25274 38947 ft 481 kts 92°
2026-04-27 15:35 64.16016 -17.17605 39059 ft 482 kts 92°
2026-04-27 15:35 64.16031 -17.09903 39099 ft 484 kts 92°
2026-04-27 15:35 64.16051 -16.94475 39092 ft 482 kts 92°
2026-04-27 15:36 64.16056 -16.79261 39088 ft 479 kts 92°
2026-04-27 15:36 64.16044 -16.64045 39091 ft 475 kts 92°
2026-04-27 15:37 64.16016 -16.48942 39102 ft 473 kts 92°
2026-04-27 15:37 64.15972 -16.33879 39110 ft 473 kts 93°
2026-04-27 15:38 64.15913 -16.18793 39107 ft 474 kts 93°
2026-04-27 15:38 64.15838 -16.03754 39104 ft 476 kts 93°
2026-04-27 15:39 64.15747 -15.88548 39112 ft 479 kts 92°
2026-04-27 15:39 64.15640 -15.73257 39104 ft 482 kts 92°
2026-04-27 15:40 64.15515 -15.57866 39095 ft 484 kts 93°
2026-04-27 15:40 64.15376 -15.42513 39069 ft 486 kts 93°
2026-04-27 15:41 64.15218 -15.27004 39082 ft 487 kts 93°
2026-04-27 15:41 64.15044 -15.11486 39089 ft 488 kts 93°
2026-04-27 15:42 64.14853 -14.95950 39114 ft 488 kts 93°
2026-04-27 15:42 64.14645 -14.80412 39118 ft 488 kts 93°
2026-04-27 15:43 64.14422 -14.64974 39116 ft 488 kts 93°
2026-04-27 15:43 64.14182 -14.49463 39116 ft 487 kts 93°
2026-04-27 15:44 64.13925 -14.33982 39116 ft 486 kts 94°
2026-04-27 15:44 64.13653 -14.18509 39124 ft 486 kts 94°
2026-04-27 15:45 64.13365 -14.03134 39124 ft 487 kts 94°
2026-04-27 15:45 64.13059 -13.87644 39124 ft 487 kts 94°
2026-04-27 15:46 64.12736 -13.72123 39126 ft 488 kts 94°
2026-04-27 15:46 64.12396 -13.56586 39130 ft 489 kts 94°
2026-04-27 15:47 64.12038 -13.40997 39134 ft 491 kts 95°
2026-04-27 15:47 64.11665 -13.25468 39156 ft 493 kts 95°
2026-04-27 15:48 64.11271 -13.09788 39150 ft 494 kts 95°
2026-04-27 15:49 64.10647 -12.86187 39160 ft 497 kts 95°
2026-04-27 15:49 64.10211 -12.70511 39156 ft 498 kts 95°
2026-04-27 15:50 64.09755 -12.54732 39162 ft 497 kts 94°
2026-04-27 15:50 64.09282 -12.38978 39156 ft 496 kts 94°
2026-04-27 15:51 64.08794 -12.23284 39175 ft 494 kts 94°
2026-04-27 15:51 64.08292 -12.07668 39174 ft 492 kts 95°
2026-04-27 15:52 64.07778 -11.92222 39179 ft 490 kts 95°
2026-04-27 15:52 64.07247 -11.76747 39189 ft 487 kts 94°
2026-04-27 15:53 64.06702 -11.61350 39186 ft 485 kts 94°
2026-04-27 15:53 64.06143 -11.46020 39188 ft 483 kts 94°
2026-04-27 15:54 64.05573 -11.30845 39194 ft 482 kts 94°
2026-04-27 15:54 64.04985 -11.15602 39211 ft 482 kts 94°
2026-04-27 15:55 64.04382 -11.00376 39223 ft 482 kts 94°
2026-04-27 15:55 64.03762 -10.85144 39218 ft 483 kts 94°
2026-04-27 15:56 64.03129 -10.69982 39227 ft 484 kts 94°
2026-04-27 15:56 64.02473 -10.54675 39231 ft 486 kts 95°
2026-04-27 15:57 64.01798 -10.39296 39238 ft 488 kts 95°
2026-04-27 15:57 64.01105 -10.23867 39235 ft 490 kts 95°
2026-04-27 15:58 64.00401 -10.08538 39221 ft 489 kts 94°
2026-04-27 15:58 63.99789 -9.93128 39240 ft 487 kts 91°
2026-04-27 15:59 63.99537 -9.77744 39242 ft 485 kts 89°
2026-04-27 15:59 63.99346 -9.62415 39248 ft 483 kts 89°
2026-04-27 16:00 63.99110 -9.47229 39249 ft 482 kts 90°
2026-04-27 16:00 63.98827 -9.31984 39262 ft 481 kts 89°
2026-04-27 16:01 63.98518 -9.16755 39260 ft 481 kts 90°
2026-04-27 16:01 63.98194 -9.01567 39263 ft 480 kts 90°
2026-04-27 16:02 63.97856 -8.86386 39264 ft 480 kts 90°
2026-04-27 16:02 63.97505 -8.71310 39272 ft 480 kts 90°
2026-04-27 16:03 63.97136 -8.56114 39279 ft 481 kts 90°
2026-04-27 16:03 63.96751 -8.40914 39280 ft 482 kts 90°
2026-04-27 16:04 63.96348 -8.25683 39281 ft 482 kts 90°
2026-04-27 16:04 63.95932 -8.10538 39285 ft 483 kts 91°
2026-04-27 16:05 63.95496 -7.95253 39285 ft 485 kts 91°
2026-04-27 16:05 63.95043 -7.79927 39303 ft 486 kts 90°
2026-04-27 16:06 63.94572 -7.64570 39291 ft 487 kts 91°
2026-04-27 16:06 63.94088 -7.49332 39291 ft 486 kts 91°
2026-04-27 16:07 63.93585 -7.34012 39289 ft 485 kts 91°
2026-04-27 16:07 63.93068 -7.18728 39300 ft 484 kts 91°
2026-04-27 16:08 63.92535 -7.03478 39315 ft 484 kts 91°
2026-04-27 16:08 63.91987 -6.88260 39309 ft 483 kts 91°
2026-04-27 16:09 63.91428 -6.73168 39304 ft 482 kts 91°
2026-04-27 16:09 63.90557 -6.50466 39314 ft 480 kts 91°
2026-04-27 16:10 63.89345 -6.20336 39339 ft 478 kts 91°
2026-04-27 16:11 63.88402 -5.97910 39320 ft 477 kts 91°
2026-04-27 16:12 63.87422 -5.75444 39325 ft 477 kts 91°
2026-04-27 16:13 63.86408 -5.53016 39332 ft 476 kts 91°
2026-04-27 16:13 63.85364 -5.30698 39336 ft 477 kts 91°
2026-04-27 16:14 63.83909 -5.00784 39337 ft 477 kts 92°
2026-04-27 16:15 63.82396 -4.70985 39348 ft 478 kts 92°
2026-04-27 16:16 63.80816 -4.41087 39348 ft 478 kts 92°
2026-04-27 16:17 63.79179 -4.11340 39356 ft 478 kts 92°
2026-04-27 16:18 63.77479 -3.81569 39376 ft 477 kts 92°
2026-04-27 16:19 63.76606 -3.66694 39373 ft 477 kts 92°
2026-04-27 16:20 63.74820 -3.37100 39372 ft 477 kts 93°
2026-04-27 16:21 63.73439 -3.14881 39372 ft 476 kts 93°
2026-04-27 16:22 63.71550 -2.85384 39386 ft 477 kts 94°
2026-04-27 16:22 63.70089 -2.63214 39387 ft 476 kts 94°
2026-04-27 16:23 63.68594 -2.41071 39393 ft 476 kts 94°
2026-04-27 16:24 63.67579 -2.26326 39411 ft 476 kts 94°
2026-04-27 16:25 63.65509 -1.96938 39398 ft 477 kts 95°
2026-04-27 16:26 63.63370 -1.67484 39414 ft 477 kts 95°
2026-04-27 16:27 63.61178 -1.38159 39424 ft 478 kts 95°
2026-04-27 16:28 63.58343 -1.01427 39422 ft 479 kts 95°
2026-04-27 16:29 63.55396 -0.64539 39431 ft 481 kts 96°
2026-04-27 16:30 63.53006 -0.35408 39427 ft 481 kts 96°
2026-04-27 16:31 63.49921 0.01574 39448 ft 479 kts 91°
2026-04-27 16:32 63.50083 0.16232 39447 ft 467 kts 76°
2026-04-27 16:32 63.50588 0.23302 39450 ft 465 kts 75°
2026-04-27 16:33 63.51051 0.45183 39437 ft 478 kts 92°
2026-04-27 16:33 63.49773 0.59700 39451 ft 481 kts 98°
2026-04-27 16:34 63.48668 0.74376 39440 ft 475 kts 89°
2026-04-27 16:34 63.48775 0.88915 39461 ft 468 kts 79°
2026-04-27 16:35 63.49307 1.03422 39448 ft 471 kts 85°
2026-04-27 16:36 63.48738 1.25413 39466 ft 468 kts 82°
2026-04-27 16:36 63.49084 1.39948 39453 ft 469 kts 83°
2026-04-27 16:37 63.48853 1.54508 39481 ft 475 kts 92°
2026-04-27 16:37 63.47797 1.69143 39464 ft 477 kts 96°
2026-04-27 16:38 63.46825 1.83787 39454 ft 474 kts 90°
2026-04-27 16:38 63.46588 1.98349 39462 ft 470 kts 85°
2026-04-27 16:39 63.46592 2.12964 39461 ft 471 kts 87°
2026-04-27 16:39 63.46057 2.27599 39461 ft 475 kts 93°
2026-04-27 16:40 63.45053 2.42209 39469 ft 476 kts 94°
2026-04-27 16:40 63.44287 2.56866 39465 ft 473 kts 89°
2026-04-27 16:41 63.43992 2.71508 39463 ft 471 kts 87°
2026-04-27 16:41 63.43626 2.86040 39456 ft 474 kts 93°
2026-04-27 16:42 63.42570 3.00618 39463 ft 475 kts 95°
2026-04-27 16:42 63.41641 3.15207 39469 ft 474 kts 92°
2026-04-27 16:43 63.40953 3.29731 39468 ft 473 kts 91°
2026-04-27 16:43 63.40328 3.44361 39463 ft 474 kts 91°
2026-04-27 16:44 63.39687 3.58985 39464 ft 474 kts 91°
2026-04-27 16:44 63.39018 3.73606 39463 ft 474 kts 91°
2026-04-27 16:45 63.38330 3.88234 39476 ft 474 kts 91°
2026-04-27 16:45 63.37631 4.02760 39465 ft 474 kts 91°
2026-04-27 16:46 63.36915 4.17369 39459 ft 474 kts 91°
2026-04-27 16:46 63.36186 4.31965 39458 ft 474 kts 92°
2026-04-27 16:47 63.35603 4.46549 39458 ft 471 kts 89°
2026-04-27 16:47 63.35228 4.61110 39477 ft 471 kts 88°
2026-04-27 16:48 63.34856 4.75578 39462 ft 471 kts 89°
2026-04-27 16:48 63.34439 4.90137 39453 ft 471 kts 89°
2026-04-27 16:49 63.33759 5.11973 39450 ft 471 kts 89°
2026-04-27 16:49 63.33285 5.26522 39447 ft 471 kts 89°
2026-04-27 16:50 63.32799 5.40970 39466 ft 472 kts 89°
2026-04-27 16:50 63.32296 5.55544 39462 ft 472 kts 90°
2026-04-27 16:51 63.31777 5.70117 39454 ft 473 kts 90°
2026-04-27 16:51 63.31242 5.84707 39452 ft 473 kts 90°
2026-04-27 16:52 63.30696 5.99201 39456 ft 474 kts 90°
2026-04-27 16:52 63.30132 6.13797 39477 ft 474 kts 90°
2026-04-27 16:53 63.29551 6.28410 39465 ft 475 kts 90°
2026-04-27 16:53 63.28955 6.43033 39457 ft 475 kts 90°
2026-04-27 16:54 63.28347 6.57565 39460 ft 476 kts 90°
2026-04-27 16:54 63.27720 6.72201 39453 ft 476 kts 90°
2026-04-27 16:55 63.27076 6.86846 39454 ft 476 kts 91°
2026-04-27 16:55 63.26418 7.01485 39455 ft 476 kts 91°
2026-04-27 16:56 63.25750 7.16020 39453 ft 477 kts 91°
2026-04-27 16:56 63.25062 7.30648 39454 ft 477 kts 91°
2026-04-27 16:57 63.24358 7.45276 39458 ft 477 kts 91°
2026-04-27 16:57 63.23639 7.59903 39494 ft 477 kts 91°
2026-04-27 16:58 63.22905 7.74531 39464 ft 477 kts 91°
2026-04-27 16:58 63.22161 7.89060 39458 ft 478 kts 91°
2026-04-27 16:59 63.21396 8.03694 39456 ft 478 kts 92°
2026-04-27 16:59 63.20615 8.18326 39457 ft 478 kts 92°
2026-04-27 17:00 63.19415 8.40276 39482 ft 479 kts 92°
2026-04-27 17:01 63.18600 8.54834 39474 ft 480 kts 92°
2026-04-27 17:01 63.17764 8.69495 39467 ft 480 kts 92°
2026-04-27 17:02 63.16912 8.84154 39469 ft 481 kts 92°
2026-04-27 17:02 63.16044 8.98821 39465 ft 481 kts 92°
2026-04-27 17:03 63.15168 9.13368 39502 ft 480 kts 92°
2026-04-27 17:03 63.14269 9.28033 39482 ft 481 kts 93°
2026-04-27 17:04 63.13356 9.42659 39479 ft 480 kts 93°
2026-04-27 17:04 63.12429 9.57278 39469 ft 480 kts 93°
2026-04-27 17:05 63.11486 9.71883 39473 ft 480 kts 93°
2026-04-27 17:05 63.10537 9.86358 39496 ft 479 kts 93°
2026-04-27 17:06 63.09566 10.00929 39476 ft 480 kts 94°
2026-04-27 17:06 63.08581 10.15488 39466 ft 480 kts 94°
2026-04-27 17:07 63.07750 10.27586 39464 ft 480 kts 94°
2026-04-27 17:07 63.06572 10.44469 39466 ft 479 kts 94°
2026-04-27 17:08 63.05542 10.58993 39494 ft 479 kts 94°
2026-04-27 17:08 63.04674 10.71073 39463 ft 480 kts 94°
2026-04-27 17:09 63.03615 10.85599 39460 ft 480 kts 94°
2026-04-27 17:09 63.02541 11.00111 39460 ft 480 kts 94°
2026-04-27 17:10 63.01453 11.14617 39455 ft 480 kts 94°
2026-04-27 17:10 63.00348 11.29127 39447 ft 481 kts 95°
2026-04-27 17:11 62.99236 11.43531 39455 ft 481 kts 95°
2026-04-27 17:11 62.97527 11.65288 39448 ft 481 kts 95°
2026-04-27 17:12 62.95787 11.87001 39437 ft 480 kts 95°
2026-04-27 17:13 62.94621 12.01338 39442 ft 480 kts 95°
2026-04-27 17:13 62.93327 12.15733 39429 ft 484 kts 101°
2026-04-27 17:14 62.91264 12.29813 39432 ft 485 kts 105°
2026-04-27 17:14 62.89040 12.43767 39428 ft 485 kts 105°
2026-04-27 17:15 62.86856 12.57623 39418 ft 483 kts 104°
2026-04-27 17:15 62.84691 12.71562 39413 ft 483 kts 104°
2026-04-27 17:16 62.82530 12.85490 39420 ft 484 kts 104°
2026-04-27 17:16 62.80352 12.99427 39401 ft 485 kts 104°
2026-04-27 17:17 62.78154 13.13357 39408 ft 485 kts 105°
2026-04-27 17:17 62.75955 13.27183 39393 ft 486 kts 105°
2026-04-27 17:18 62.72603 13.48051 39402 ft 487 kts 105°
2026-04-27 17:18 62.70347 13.61968 39385 ft 487 kts 105°
2026-04-27 17:19 62.68079 13.75851 39366 ft 487 kts 105°
2026-04-27 17:19 62.65795 13.89725 39369 ft 487 kts 105°
2026-04-27 17:20 62.63514 14.03474 39360 ft 487 kts 106°
2026-04-27 17:20 62.61204 14.17297 39358 ft 487 kts 106°
2026-04-27 17:21 62.58880 14.31101 39357 ft 487 kts 106°
2026-04-27 17:21 62.56544 14.44874 39346 ft 486 kts 106°
2026-04-27 17:22 62.54212 14.58530 39352 ft 486 kts 106°
2026-04-27 17:22 62.51851 14.72248 39348 ft 486 kts 106°
2026-04-27 17:23 62.49478 14.85940 39363 ft 486 kts 107°
2026-04-27 17:23 62.47091 14.99611 39345 ft 486 kts 107°
2026-04-27 17:24 62.44706 15.13170 39322 ft 486 kts 107°
2026-04-27 17:24 62.42296 15.26782 39323 ft 485 kts 107°
2026-04-27 17:25 62.39873 15.40363 39315 ft 485 kts 107°
2026-04-27 17:25 62.37439 15.53918 39338 ft 485 kts 107°
2026-04-27 17:26 62.35006 15.67365 39314 ft 485 kts 107°
2026-04-27 17:26 62.32546 15.80873 39304 ft 485 kts 108°
2026-04-27 17:27 62.30073 15.94352 39296 ft 485 kts 108°
2026-04-27 17:27 62.27589 16.07803 39298 ft 484 kts 108°
2026-04-27 17:28 62.25046 16.21202 39318 ft 485 kts 109°
2026-04-27 17:29 62.21089 16.41093 39295 ft 486 kts 109°
2026-04-27 17:29 62.18428 16.54392 39282 ft 486 kts 109°
2026-04-27 17:30 62.15764 16.67689 39289 ft 486 kts 109°
2026-04-27 17:30 62.11764 16.87529 39309 ft 487 kts 110°
2026-04-27 17:31 62.09064 17.00811 39282 ft 488 kts 110°
2026-04-27 17:31 62.06350 17.14072 39262 ft 488 kts 110°
2026-04-27 17:32 62.02252 17.33935 39272 ft 488 kts 110°
2026-04-27 17:33 61.99522 17.47061 39269 ft 488 kts 110°
2026-04-27 17:33 61.96757 17.60268 39276 ft 489 kts 110°
2026-04-27 17:34 61.93979 17.73456 39277 ft 489 kts 110°
2026-04-27 17:34 61.91185 17.86636 39264 ft 490 kts 110°
2026-04-27 17:35 61.88396 17.99713 39262 ft 490 kts 111°
2026-04-27 17:35 61.85575 18.12853 39268 ft 490 kts 111°
2026-04-27 17:36 61.82741 18.25969 39262 ft 490 kts 111°
2026-04-27 17:36 61.79897 18.39052 39257 ft 489 kts 111°
2026-04-27 17:37 61.77049 18.52070 39256 ft 488 kts 111°
2026-04-27 17:37 61.74196 18.65037 39251 ft 486 kts 111°
2026-04-27 17:38 61.71358 18.77850 39258 ft 485 kts 111°
2026-04-27 17:38 61.68494 18.90711 39256 ft 484 kts 111°
2026-04-27 17:39 61.65622 19.03523 39251 ft 484 kts 111°
2026-04-27 17:39 61.62743 19.16292 39245 ft 483 kts 111°
2026-04-27 17:40 61.59855 19.29024 39244 ft 483 kts 112°
2026-04-27 17:40 61.56975 19.41649 39239 ft 483 kts 112°
2026-04-27 17:41 61.54062 19.54340 39249 ft 483 kts 112°
2026-04-27 17:41 61.51136 19.67017 39239 ft 483 kts 112°
2026-04-27 17:42 61.48193 19.79685 39224 ft 484 kts 112°
2026-04-27 17:42 61.45258 19.92249 39226 ft 484 kts 112°
2026-04-27 17:43 61.42290 20.04879 39246 ft 484 kts 112°
2026-04-27 17:43 61.39307 20.17501 39224 ft 485 kts 113°
2026-04-27 17:44 61.36311 20.30103 39217 ft 485 kts 113°
2026-04-27 17:44 61.33321 20.42607 39217 ft 485 kts 113°
2026-04-27 17:45 61.30300 20.55171 39206 ft 485 kts 113°
2026-04-27 17:45 61.27265 20.67718 39208 ft 486 kts 113°
2026-04-27 17:46 61.24218 20.80244 39196 ft 486 kts 113°
2026-04-27 17:46 61.21180 20.92659 39196 ft 486 kts 113°
2026-04-27 17:47 61.18106 21.05158 38856 ft 491 kts 114°
2026-04-27 17:47 61.17076 21.09334 38449 ft 492 kts 114°
2026-04-27 17:47 61.14989 21.17756 37622 ft 490 kts 114°
2026-04-27 17:47 61.13431 21.24021 37019 ft 489 kts 113°
2026-04-27 17:48 61.11873 21.30269 36440 ft 489 kts 113°